Skip Page Navigation
NASA JPL Caltech
NASA Logo - Jet Propulsion Laboratory + View the NASA Portal
+ Near-Earth Object (NEO) Program
Search JPL
JPL Home Earth Solar System Stars & Galaxies Technology
JPL Solar System Dynamics
BODIES ORBITS EPHEMERIDES TOOLS PHYSICAL DATA DISCOVERY FAQ SITE MAP
JPL Small-Body Database Browser
Search: [ help ]  
18099 Flamini (2000 LD27)
Classification: Main-belt Asteroid          SPK-ID: 2018099
Ephemeris | Orbit Diagram | Orbital Elements | Physical Parameters | Discovery Circumstances | Close-Approach Data ]

[ show orbit diagram ]
Orbital Elements at Epoch 2456800.5 (2014-May-23.0) TDB
Reference: JPL 7 (heliocentric ecliptic J2000)
 Element Value Uncertainty (1-sigma)   Units 
e .133350085759932 8.2516e-08  
a 2.988978062613312 3.7781e-08 AU
q 2.590397581629272 2.4423e-07 AU
i 11.2733816572083 7.296e-06 deg
node 102.2840253553228 3.8765e-05 deg
peri 269.2303330072505 4.7394e-05 deg
M 200.0257250796725 2.8544e-05 deg
tp 2457639.245431941808
(2016-Sep-07.74543194)
0.0001554 JED
period 1887.480694314326
5.17
3.5787e-05
9.798e-08
d
yr
n .1907304276459256 3.6163e-09 deg/d
Q 3.387558543597352 4.2819e-08 AU
  Orbit Determination Parameters
   # obs. used (total)      714  
   data-arc span      8221 days (22.51 yr)  
   first obs. used      1991-12-28  
   last obs. used      2014-07-01  
   planetary ephem.      DE431  
   SB-pert. ephem.      SB431-BIG16  
   condition code      0  
   fit RMS      .58553  
   data source      ORB  
   producer      Otto Matic  
   solution date      2014-Jul-14 12:40:12  

Additional Information
 Earth MOID = 1.61999 AU 
 T_jup = 3.214 
[ show covariance matrix ]

Ephemeris | Orbit Diagram | Orbital Elements | Physical Parameters | Discovery Circumstances | Close-Approach Data ]

Physical Parameter Table
Parameter Symbol Value Units Sigma Reference Notes
absolute magnitude H 13.6 mag n/a MPO263509  

18099 Flamini           Discovered 2000 June 6 by the Lowell Observatory Near-Earth Object Search at the Anderson Mesa Station.
Enrico Flamini (b. 1951), of the Italian Space Agency (ASI), is co-investigator of the Huygens Atmospheric structure instrument and ASI manager of the entire Cassini/Huygens mission.
NOTE: some special characters may not display properly (any characters within {} are an attempt to place the proper accent above a character)
Reference: 20050721/MPCPages.arcLast Updated: 2005-07-21

[ show close-approach data ]
Alternate Designations
 2000 LD27 = 1998 FQ91 = 1999 JQ96 
Ephemeris | Orbit Diagram | Orbital Elements | Physical Parameters | Discovery Circumstances | Close-Approach Data ]
ABOUT SSD CREDITS/AWARDS PRIVACY/COPYRIGHT GLOSSARY LINKS
FirstGov 2014-Jul-24 01:38 UT
(server date/time)  
NASA Home Page
Site Manager:   Donald K. Yeomans
Webmaster  Alan B. Chamberlin